Location: Home
(42.5358°N, 72.7383°W)
Time: 14:08:38
(UTC-05:00)

Explorer 11/Cluster Stage 4 - Pass Details

Date: 18 December 2025
Orbit: 463 x 1179 km, 28.8° (Epoch: 21 January)

Event Time Altitude Azimuth Distance (km) Brightness Sun altitude
Rises 19:33:20 0° 255° (WSW) 4,049 11.2 -34.7°
Reaches altitude 10° 19:36:52 10° 242° (WSW) 3,051 10.2 -35.3°
Enters shadow 19:42:31 23° 195° (SSW) 2,116 8.8 -36.4°
